This demonstration page uses our WeatherBlox Daily Observations layout. Learn more.

Hourly Observations for November 4, 2019

Temp ( °F °C ) Dew Point ( °F °C ) Humidity (%) Winds ( mph kmh ) Pressure ( in mb ) Visibility ( mi km ) Precip ( " mm )
12:15 am 00:15 Cloudy 42 5.4 35 1.4 76 76 N 7 11 30.03 1017 10 16.0934 0 0
12:35 am 00:35 Mostly Cloudy 42 5.6 35 1.5 75 75 N 6 9 30.03 1017 10 16.0934 0 0
12:55 am 00:55 Cloudy 42 5.5 35 1.5 76 76 N 5 7 30.04 1017 10 16.0934 0 0
1:15 am 01:15 Cloudy 42 5.5 35 1.6 76 76 NNW 5 7 30.04 1017 10 16.0934 0 0
1:35 am 01:35 Cloudy 42 5.6 35 1.8 77 77 NNW 3 6 30.05 1018 10 16.0934 0 0
1:55 am 01:55 Cloudy 42 5.5 35 1.9 78 78 NW 3 6 30.06 1018 10 16.0934 0 0
2:15 am 02:15 Cloudy 41 5.2 35 1.7 78 78 NNW 3 6 30.07 1018 10 16.0934 0 0
2:35 am 02:35 Cloudy 41 5 35 1.7 79 79 Calm 30.09 1019 10 16.0934 0 0
2:55 am 02:55 Cloudy 41 5 35 1.6 79 79 NNW 3 6 30.09 1019 10 16.0934 0 0
3:15 am 03:15 Cloudy 41 5 35 1.6 79 79 NW 3 6 30.09 1019 10 16.0934 0 0
3:35 am 03:35 Cloudy 41 4.8 35 1.7 81 81 NW 3 6 30.09 1019 10 16.0934 0 0
3:55 am 03:55 Cloudy 41 4.8 35 1.7 81 81 NW 3 6 30.09 1019 10 16.0934 0 0
4:15 am 04:15 Cloudy 40 4.6 35 1.7 82 82 WNW 3 6 30.09 1019 10 16.0934 0 0
4:35 am 04:35 Cloudy 40 4.6 35 1.8 82 82 NNW 3 6 30.09 1019 10 16.0934 0 0
4:55 am 04:55 Cloudy 40 4.7 36 2 83 83 N 3 6 30.09 1019 10 16.0934 0 0
5:15 am 05:15 Cloudy 41 4.8 36 2 82 82 Calm 30.1 1019 10 16.0934 0 0
5:35 am 05:35 Cloudy 41 4.8 36 2 82 82 NW 5 7 30.1 1019 10 16.0934 0 0
5:55 am 05:55 Cloudy 40 4.7 36 2 83 83 NW 3 6 30.11 1020 10 16.0934 0 0
6:15 am 06:15 Cloudy with Light Rain 40 4.7 36 2.1 83 83 WNW 3 6 30.11 1020 10 16.0934 0 0
6:35 am 06:35 Cloudy 40 4.6 37 2.5 86 86 NNW 3 6 30.11 1020 10 16.0934 0 0
6:55 am 06:55 Cloudy 40 4.6 37 2.5 86 86 Calm 30.12 1020 10 16.0934 0 0
7:15 am 07:15 Cloudy 40 4.6 36 2.3 85 85 NNW 3 6 30.12 1020 10 16.0934 0 0
7:35 am 07:35 Cloudy 40 4.6 37 2.5 86 86 Calm 30.13 1020 10 16.0934 0 0
7:55 am 07:55 Cloudy with Light Rain 40 4.6 37 2.5 86 86 NNW 3 6 30.14 1021 10 16.0934 0 0
8:15 am 08:15 Cloudy with Light Rain 40 4.7 37 2.9 88 88 NNW 3 6 30.15 1021 10 16.0934 0 0
8:35 am 08:35 Cloudy with Light Rain 41 4.8 38 3.5 91 91 NW 3 6 30.16 1021 10 16.0934 0 0
8:55 am 08:55 Cloudy with Light Rain 41 5 39 3.7 91 91 WNW 3 6 30.17 1022 10 16.0934 0.01 0.254
9:15 am 09:15 Cloudy with Light Rain 41 5.2 40 4.2 93 93 Calm 30.17 1022 10 16.0934 0 0
9:35 am 09:35 Cloudy with Light Drizzle 42 5.6 40 4.4 92 92 Calm 30.16 1021 10 16.0934 0 0
9:55 am 09:55 Cloudy 43 6 40 4.5 90 90 N 7 11 30.17 1022 10 16.0934 0 0
10:15 am 10:15 Cloudy with Light Drizzle 43 6.2 40 4.6 90 90 N 8 13 30.17 1022 10 16.0934 0 0
10:35 am 10:35 Cloudy 43 6.3 40 4.5 88 88 N 10 17 30.17 1022 10 16.0934 0 0
10:55 am 10:55 Cloudy 43 6.2 40 4.3 88 88 NNE 12 19 30.18 1022 10 16.0934 0 0
11:15 am 11:15 Cloudy with Light Rain 43 5.9 39 4 88 88 N 12 19 30.19 1022 10 16.0934 0 0
11:35 am 11:35 Cloudy with Light Rain 42 5.5 39 4.1 91 91 N 10 17 30.2 1023 10 16.0934 0 0
11:55 am 11:55 Cloudy with Light Rain 42 5.3 39 4 91 91 NNE 15 24 30.21 1023 10 16.0934 0 0
12:15 pm 12:15 Cloudy with Light Rain 40 4.6 37 3 89 89 N 16 26 30.2 1023 10 16.0934 0 0
12:35 pm 12:35 Cloudy with Light Drizzle 40 4.5 37 2.8 89 89 N 12 19 30.2 1023 10 16.0934 0 0
12:55 pm 12:55 Cloudy with Light Rain 40 4.5 37 2.8 89 89 N 9 15 30.2 1023 10 16.0934 0 0
1:15 pm 13:15 Cloudy with Light Rain 40 4.7 38 3.4 91 91 N 12 19 30.19 1022 10 16.0934 0 0
1:35 pm 13:35 Cloudy with Light Rain 40 4.7 38 3.1 90 90 N 10 17 30.19 1022 10 16.0934 0 0
1:55 pm 13:55 Cloudy with Light Rain 40 4.6 37 2.9 89 89 NNE 8 13 30.18 1022 10 16.0934 0 0
2:15 pm 14:15 Cloudy 40 4.6 37 2.7 88 88 NNE 7 11 30.19 1022 10 16.0934 0 0
2:35 pm 14:35 Cloudy 40 4.7 37 2.8 88 88 N 3 6 30.2 1023 10 16.0934 0 0
2:55 pm 14:55 Cloudy 40 4.6 37 2.5 86 86 N 6 9 30.2 1023 10 16.0934 0 0
3:15 pm 15:15 Cloudy 41 4.9 37 2.6 85 85 N 5 7 30.2 1023 10 16.0934 0 0
3:35 pm 15:35 Cloudy with Light Drizzle 41 4.8 36 2.3 84 84 N 6 9 30.21 1023 10 16.0934 0 0
3:55 pm 15:55 Cloudy with Drizzle 40 4.2 36 2 86 86 NNE 6 9 30.22 1023 10 16.0934 0 0
4:15 pm 16:15 Cloudy with Light Drizzle 39 4 36 2.2 88 88 NNE 6 9 30.23 1024 10 16.0934 0 0
4:35 pm 16:35 Cloudy with Light Drizzle 39 3.9 36 2.2 89 89 N 3 6 30.23 1024 10 16.0934 0 0
4:55 pm 16:55 Cloudy with Light Drizzle 39 3.7 36 2.2 90 90 Calm 30.23 1024 10 16.0934 0 0
5:15 pm 17:15 Cloudy with Light Drizzle 39 3.7 36 2 89 89 Calm 30.24 1024 10 16.0934 0 0
5:35 pm 17:35 Cloudy with Rain 38 3.6 36 2.1 90 90 Calm 30.24 1024 10 16.0934 0 0
5:55 pm 17:55 Cloudy with Light Rain 38 3.5 36 2.2 91 91 Calm 30.25 1024 10 16.0934 0 0
6:15 pm 18:15 Cloudy with Light Drizzle 38 3.5 36 2.3 92 92 Calm 30.25 1024 10 16.0934 0 0
6:35 pm 18:35 Cloudy with Light Rain 38 3.3 37 2.5 95 95 Calm 30.26 1025 10 16.0934 0 0
6:55 pm 18:55 Cloudy with Light Drizzle 38 3.3 37 2.5 95 95 Calm 30.27 1025 10 16.0934 0 0
7:15 pm 19:15 Cloudy with Light Drizzle 38 3.2 36 2.2 93 93 WNW 3 6 30.29 1026 10 16.0934 0 0
7:35 pm 19:35 Cloudy with Light Drizzle 38 3.1 36 2.2 94 94 W 3 6 30.29 1026 10 16.0934 0 0
7:55 pm 19:55 Cloudy with Light Drizzle 38 3.1 36 2.4 95 95 Calm 30.3 1026 10 16.0934 0 0
8:15 pm 20:15 Cloudy 37 3 36 2.2 95 95 Calm 30.3 1026 10 16.0934 0 0
8:35 pm 20:35 Cloudy 37 2.9 36 2.2 95 95 Calm 30.3 1026 10 16.0934 0 0
8:55 pm 20:55 Cloudy 38 3.1 36 2.3 95 95 WNW 3 6 30.31 1026 10 16.0934 0 0
9:15 pm 21:15 Cloudy 37 2.9 36 2.1 95 95 Calm 30.3 1026 10 16.0934 0 0
9:35 pm 21:35 Cloudy 37 3 36 2.3 95 95 Calm 30.32 1027 10 16.0934 0 0
9:55 pm 21:55 Cloudy 37 2.9 36 2.2 95 95 Calm 30.32 1027 10 16.0934 0 0
10:15 pm 22:15 Cloudy 37 3 36 2.3 95 95 WNW 3 6 30.32 1027 10 16.0934 0 0
10:35 pm 22:35 Cloudy 37 2.8 36 2.2 96 96 Calm 30.33 1027 10 16.0934 0 0
10:55 pm 22:55 Cloudy 37 2.7 36 2.2 97 97 WNW 3 6 30.33 1027 10 16.0934 0 0
11:15 pm 23:15 Cloudy 37 3 36 2.3 95 95 Calm 30.34 1027 10 16.0934 0 0
11:35 pm 23:35 Cloudy 38 3.1 36 2.3 95 95 WNW 3 6 30.33 1027 10 16.0934 0 0
11:55 pm 23:55 Cloudy 37 3 36 2.3 95 95 Calm 30.33 1027 10 16.0934 0 0

Powered by AerisWeather